Home   Weather   Oslo   Past weeks

Flag for Norway Past Weather in Oslo, Norway — Yesterday and Last 2 Weeks

Now
26 °F

Chilly.


Feels Like: 26 °F
Forecast: 10 / 26 °F
Wind: 1 mph from Southeast

Location: Oslo-Blindern

Current Time: Dec 12, 2017 at 1:26:36 pm

Latest Report: Dec 12, 2017 at 12:00 pm


Visibility: 31 mi

Pressure: 29.38 "Hg

Humidity: 71%

Dew Point: 18 °F

Location of OsloLocation

Past Weather in Oslo — Graph

°F

Oslo Temperature Yesterday

Maximum temperature yesterday: 30 °F (at 1:00 pm)
Minimum temperature yesterday: 27 °F (at 12:00 am)
Average temperature yesterday: 28 °F

High & Low Weather Summary for the Past Weeks

 TemperatureHumidityPressure
High47 °F (Dec 7, 4:00 pm)100% (Dec 7, 2:00 am)30.09 "Hg (Dec 7, 2:00 am)
Low18 °F (Dec 2, 3:00 am)44% (Dec 9, 2:00 pm)28.70 "Hg (Dec 8, 2:00 am)
Average30 °F81%29.53 "Hg
* Reported Nov 27 11:00 am — Dec 12 11:00 am, Oslo. Weather by CustomWeather, © 2017

Note: Actual official high and low records may vary slightly from our data, if they occured in-between our weather recording intervals... More about our weather records

Advertising

Oslo Weather History for the Previous 24 Hours

Scroll right to see more
 ConditionsComfort  
Time TempWeatherWind HumidityBarometerVisibility
11:00 am
Tue, Dec 12
26 °FChilly.2 mph73%29.41 "Hg31 mi
10:00 am24 °FPassing clouds.1 mph80%29.38 "Hg47 mi
9:00 am25 °FCold.2 mph79%29.38 "Hg31 mi
8:00 am25 °FChilly.2 mph80%29.38 "Hg31 mi
7:00 am25 °FChilly.2 mph81%29.38 "Hg31 mi
6:00 am26 °FChilly.3 mph81%29.38 "Hg31 mi
5:00 am26 °FChilly.3 mph82%29.38 "Hg31 mi
4:00 am27 °FChilly.6 mph79%29.38 "HgN/A
3:00 am27 °FChilly.3 mph79%29.38 "Hg31 mi
2:00 am27 °FChilly.6 mph81%29.41 "Hg31 mi
1:00 am28 °FChilly.6 mph79%29.44 "Hg31 mi
12:00 am28 °FChilly.5 mph80%29.44 "Hg31 mi
11:00 pm
Mon, Dec 11
27 °FChilly.2 mph83%29.44 "Hg31 mi
10:00 pm28 °FPassing clouds.5 mph83%29.44 "Hg43 mi
9:00 pm28 °FChilly.6 mph83%29.41 "Hg31 mi
8:00 pm28 °FChilly.2 mph83%29.44 "Hg31 mi
7:00 pm29 °FOvercast.5 mph83%29.44 "Hg40 mi
6:00 pm29 °FChilly.5 mph83%29.44 "Hg31 mi
5:00 pm29 °FChilly.2 mph84%29.41 "Hg31 mi
4:00 pm30 °FOvercast.3 mph84%29.41 "Hg37 mi
3:00 pm30 °FChilly.2 mph83%29.41 "Hg31 mi
2:00 pm30 °FChilly.2 mph83%29.41 "Hg31 mi
1:00 pm30 °FOvercast.2 mph82%29.38 "Hg47 mi
Weather by CustomWeather, © 2017

See weather overview